Location: ??
(35.5052°N, 139.7262°E)
Time: 18:19:26
(UTC+00:00)

FALCON 9 DEB - Pass Details

Date: 20 June 2021
Orbit: 359 x 375 km, 53.0° (Epoch: 30 July)

Event Time Altitude Azimuth Distance (km) Brightness Sun altitude
Rises 17:54:51 0° 321° (NW) 2,256 6.8 -15.6°
Reaches altitude 10° 17:57:01 10° 331° (NNW) 1,397 5.9 -15.3°
Maximum altitude 17:59:55 35° 39° (NE) 633 4.6 -14.8°
Drops below altitude 10° 18:02:47 10° 108° (ESE) 1,378 6.0 -14.4°
Sets 18:04:56 0° 117° (ESE) 2,232 7.0 -14.1°
